Wind_Speed
14 15 14 16 13 19 26 25 24 23 22 22 22 23 24 23 23 22 21 21 21 20 19 20 18 17 18 19 17 17 18 21
14 15 16 13 13 19 22 24 21 18 17 16 17 17 19 20 19 18 18 16 16 17 16 18 18 18 18 18 16 16 17 21
12 14 11 13 17 17 16 17 14 11 13 14 15 17 18 17 16 16 16 15 15 16 16 16 17 15 17 17 17 16 14 17
9 14 16 18 15 15 14 12 11 13 15 17 17 16 13 10 12 14 17 16 15 15 16 16 16 16 17 17 17 16 16 15
7 9 9 18 18 15 14 13 14 13 12 11 12 10 10 9 10 11 13 15 15 15 16 16 16 15 16 15 14 14 14 14
8 6 9 11 16 16 14 14 14 12 12 13 13 13 12 9 9 10 13 15 16 16 16 16 16 15 15 15 15 14 13 12
4 4 10 11 14 15 14 14 14 12 12 12 12 11 10 8 9 10 10 12 14 16 16 15 14 14 16 16 15 13 13 12
3 5 9 9 12 14 14 14 14 12 12 12 11 10 9 9 8 9 9 10 11 14 14 13 12 14 16 15 13 12 12 13
4 4 6 10 12 12 12 13 15 13 12 12 11 10 9 10 9 8 8 8 8 10 11 11 12 14 13 12 11 10 11 12
5 5 7 11 14 15 15 14 14 12 13 12 11 9 8 9 8 8 8 8 7 9 11 11 11 11 11 11 10 10 12 13
9 9 10 11 12 13 16 15 15 14 13 11 9 8 7 8 8 8 7 7 8 10 11 11 11 11 11 10 10 11 13 13
9 10 11 14 15 14 15 16 16 14 12 9 7 7 7 7 7 6 6 6 9 10 10 10 10 11 12 10 12 12 14 15
13 13 13 14 15 16 19 16 15 14 11 8 7 7 6 5 5 5 6 7 9 10 9 9 10 12 12 10 13 13 14 16
14 15 15 17 18 17 16 16 15 13 11 9 8 6 4 3 3 4 5 8 9 9 8 10 10 11 10 10 12 14 15 16
15 17 18 18 18 17 17 16 15 13 11 10 8 5 3 1 2 4 6 8 8 8 8 9 9 10 9 11 14 16 16 17
17 15 20 19 19 17 16 15 15 14 13 10 8 6 3 1 2 4 6 8 8 9 8 8 9 9 8 12 15 17 18 19
18 21 21 21 21 20 18 17 17 16 13 11 9 6 4 2 3 5 6 6 7 7 8 9 9 9 10 13 16 19 19 19
20 21 22 24 24 22 21 20 19 17 14 11 9 7 4 3 3 5 6 7 8 8 9 9 10 10 11 15 17 19 18 19
21 22 24 25 22 21 19 21 20 17 14 12 9 7 5 4 4 5 6 8 9 10 10 11 11 11 12 15 18 18 19 20
Wind_Direction
106 105 108 110 132 129 115 109 107 105 104 97 90 89 84 80 72 66 60 56 52 52 51 44 39 36 30 26 24 21 15 1
102 103 104 108 117 121 118 112 111 107 114 104 92 86 82 76 71 65 57 54 55 53 47 39 35 35 31 26 20 14 13 5
125 120 126 136 131 127 121 108 110 109 112 114 102 99 89 82 70 61 56 55 54 50 43 38 34 30 27 23 18 8 5 10
140 140 152 140 131 130 122 113 115 111 114 120 111 110 103 78 62 59 58 57 53 46 38 35 32 30 23 21 17 13 360 1
180 159 156 140 133 127 119 120 116 114 116 121 130 120 103 80 71 67 63 55 46 36 31 27 25 22 19 15 11 9 6 358
184 173 154 142 137 128 128 119 112 113 121 124 120 106 98 95 84 67 53 43 33 24 18 14 12 14 13 10 7 7 3 357
176 134 145 146 135 140 135 125 114 120 126 126 123 116 109 90 65 58 41 31 22 19 17 18 20 20 16 11 7 8 10 11
182 170 168 158 143 147 138 134 123 132 135 130 127 123 119 93 69 51 38 32 29 23 18 18 20 17 11 6 4 8 12 10
160 176 172 165 155 149 140 136 133 139 136 127 123 120 101 92 78 65 58 53 36 23 25 22 14 7 6 6 5 11 4 358
152 145 157 162 160 156 152 142 137 138 135 130 120 109 101 90 80 68 66 50 33 21 15 10 9 10 7 4 4 2 355 350
160 152 152 155 154 147 148 147 147 145 142 136 123 111 92 81 79 68 55 40 26 12 6 8 8 5 3 2 358 349 347 343
159 153 149 144 141 149 147 150 151 148 146 138 126 114 100 91 74 53 41 27 14 3 1 6 7 4 355 348 347 340 339 337
162 156 153 147 154 159 150 156 154 154 150 145 132 126 111 85 57 40 22 12 1 355 358 5 1 351 348 341 336 334 335 333
166 162 162 162 165 158 153 161 162 158 154 148 139 134 111 81 47 26 5 355 350 353 1 357 348 344 340 334 332 328 329 329
175 173 176 177 171 162 165 168 168 162 159 154 151 149 145 108 17 359 349 346 345 347 351 346 342 340 338 333 329 327 324 323
184 181 181 180 177 171 172 175 172 171 169 164 163 167 179 285 325 330 336 340 338 338 338 341 339 340 333 335 329 322 322 323
186 187 184 181 183 180 180 180 181 180 177 172 175 183 206 252 291 319 329 332 330 331 337 336 337 335 330 331 327 322 321 322
188 191 186 188 190 184 185 185 186 186 183 183 186 197 214 223 285 315 321 323 325 333 338 333 332 331 331 332 327 324 321 323
194 191 189 193 189 186 186 188 190 188 186 188 196 205 211 221 281 308 314 319 326 335 332 327 327 326 330 332 329 324 321 325
Height
869 871 875 874 880 879 873 876 877 878 880 884 885 885 885 886 887 887 888 888 887 886 885 884 881 879 877 875 873 871 870 866
872 873 874 878 882 882 879 876 879 882 883 886 886 887 889 890 891 891 890 890 889 887 886 884 882 880 879 877 876 873 870 867
872 874 876 878 879 882 882 879 881 884 885 887 888 889 892 893 893 893 892 891 889 888 886 885 883 883 880 878 876 875 873 870
870 870 874 876 878 880 881 882 883 884 886 888 889 890 893 895 895 894 893 891 890 889 887 885 883 883 882 880 878 875 873 871
871 873 877 873 874 878 881 883 884 885 887 888 890 892 893 895 896 896 894 892 891 889 887 885 884 884 882 882 880 878 875 872
869 873 877 877 876 878 881 883 884 886 887 889 890 892 894 895 896 896 894 893 891 890 888 887 886 884 883 882 880 878 876 874
870 872 875 877 876 879 882 882 885 887 888 889 890 892 894 896 896 895 895 893 892 891 890 889 887 885 883 881 880 878 876 874
869 872 876 878 878 880 882 882 885 887 889 890 891 892 892 893 895 896 895 895 894 892 891 890 888 885 883 881 880 878 875 874
868 872 875 877 880 882 883 883 885 888 889 891 892 893 893 893 894 895 895 896 895 893 891 890 888 885 883 881 880 877 875 874
870 872 873 877 878 878 880 884 887 889 890 892 893 894 893 893 893 894 895 895 895 893 891 889 887 885 882 880 879 877 875 872
868 871 873 875 878 879 879 882 886 889 890 891 892 893 893 893 894 894 894 893 892 892 890 888 886 885 882 880 878 875 873 871
867 870 872 873 875 880 882 882 886 888 890 892 892 893 893 893 893 894 893 893 891 891 889 886 885 883 881 879 876 874 871 869
865 868 871 873 876 879 877 883 886 888 890 891 891 892 892 893 893 893 893 892 890 890 888 885 883 882 879 877 875 872 870 867
863 867 870 872 875 876 880 883 885 886 888 889 891 892 892 893 892 892 892 891 890 888 885 884 882 880 878 876 873 871 867 865
859 863 868 872 874 874 879 882 883 885 887 888 890 891 891 891 891 890 890 889 888 886 883 882 880 879 877 874 871 868 865 861
854 859 864 869 872 874 877 880 882 884 886 887 888 889 890 889 888 888 887 886 885 884 882 880 878 876 875 872 869 866 861 857
849 853 858 862 867 869 873 877 880 882 883 884 885 886 887 886 886 886 885 884 883 882 879 878 876 874 872 870 867 862 857 853
841 847 851 856 861 865 869 873 877 879 881 882 883 884 884 884 884 885 884 882 881 879 876 875 873 871 869 867 863 859 854 849
836 841 847 852 858 863 868 871 874 876 878 879 881 882 881 881 881 881 881 880 877 875 873 872 870 868 866 863 860 856 850 845